Regional Weather Roundup
Issued by NWS Wakefield, VA

Home | Current Version | Previous Version | Text Only | Print | Product List | Glossary Off
Versions: 1 2 3 4 5 6 7 8 9 10 11 12 13 14 15 16 17 18 19 20 21 22 23 24 25 26 27 28 29 30 31 32 33 34 35 36 37 38 39 40 41 42 43 44 45 46 47 48 49 50

000
ASUS41 KAKQ 220010
RWRAKQ

REGIONAL WEATHER ROUNDUP
NATIONAL WEATHER SERVICE WAKEFIELD VA
800 PM EDT SUN SEP 21 2014

Note: "fair" indicates few or no clouds below 12,000 feet with no
significant weather and/or obstructions to visibility. * = Denotes
station may not report precipitation (e.g., rain,snow,etc.),
thunder or fog.

VAZ042-051-052>054-056-220100-
NORTHERN VIRGINIA

CITY           SKY/WX    TMP DP  RH WIND       PRES   REMARKS
WASH NATIONAL  CLOUDY    81  60  48 S9        29.66S
DULLES         PTCLDY    71  67  87 S7        29.67R
FORT BELVOIR   PTCLDY    71  68  90 CALM      29.67R
QUANTICO       PTCLDY    77  66  68 SW6       29.66S
FREDERICKSBRG* PTCLDY    81  65  57 S9        29.66R
STAFFORD*      PTCLDY    77  64  63 CALM      29.71R
WARRENTON      PTCLDY    71  71 100 CALM      29.68R FOG
CULPEPER*      PTCLDY    79  66  65 SW3       29.68R
MANASSAS*      NOT AVBL
LEESBURG*      PTCLDY    72  70  94 SW3       29.68R
WINCHESTER     CLOUDY    73  55  53 W16G24    29.72R
FRONT ROYAL*   CLOUDY    77  57  50 NW12G28   29.71R
LURAY*         CLOUDY    82  54  36 W9        29.72R
$$

VAZ048-049-060>072-079>083-220100-
CENTRAL AND SOUTH CENTRAL VIRGINIA...AND NORTH CENTRAL NORTH CAROLINA

CITY           SKY/WX    TMP DP  RH WIND       PRES   REMARKS
RICHMOND       PTCLDY    81  65  58 SW13      29.72R
CHESTERFIELD*  CLEAR     79  61  53 SW8       29.75R
PETERSBURG*    CLEAR     76  65  70 SW5       29.75R
HANOVER        CLEAR     80  65  59 SW7       29.72R
TAPPAHANNOCK*  CLEAR     74  60  61 S3        29.70R
CHARLOTTSVILLE PTCLDY    78  62  57 VRB6      29.72R
ORANGE*        PTCLDY    79  63  57 S8        29.71R
LOUISA*        PTCLDY    79  64  61 SW8       29.69S
FARMVILLE*     PTCLDY    79  64  61 SW3       29.73R
CREWE*         CLEAR     76  66  72 S3        29.75R
FORT PICKETT*  CLEAR     74  67  78 SW6       29.75R
LUNENBURG*     CLEAR     75  68  79 SW3       29.76R
SOUTH HILL*    PTCLDY    73  70  88 SW6       29.82R
LAWRENCEVILLE* CLEAR     72  68  87 S5        29.76R
ROANOKE RAPIDS CLEAR     73  68  83 S6        29.77S
RALEIGH        PTCLDY    76  64  66 SW8       29.82R
$$

VAZ088>098-220100-
SOUTHEAST VIRGINIA

CITY           SKY/WX    TMP DP  RH WIND       PRES   REMARKS
NORFOLK        CLEAR     75  62  64 SW9       29.74R
VIRGINIA BEACH PTCLDY    76  62  62 SW8       29.74R
NORFOLK NAVAL  PTCLDY    78  64  61 S7        29.76R
WEST POINT*    CLEAR     78  64  62 S6        29.72S
NEWPORT NEWS   CLEAR     80  65  59 SW8       29.73R
LANGLEY AFB    CLEAR     77  65  65 SW10      29.73R
FORT EUSTIS    CLEAR     76  65  68 VRB6      29.72R
WILLIAMSBURG*  CLEAR     79  68  69 S3        29.74R
HR EXEC AP*    CLEAR     73  64  73 SW7       29.77R
FRANKLIN*      CLEAR     73  64  73 S5        29.76R
WAKEFIELD      CLEAR     76  66  71 SW5       29.74R
$$

VAZ020-022-025-037-045-220100-
WEST CENTRAL AND SOUTHWEST VIRGINIA

CITY           SKY/WX    TMP DP  RH WIND       PRES   REMARKS
STAUNTON*      PTCLDY    75  59  57 SW8       29.77R
HOT SPRINGS VA CLOUDY    62  47  58 W18G24    29.90S
LYNCHBURG      PTCLDY    73  65  75 W8        29.80R
DANVILLE       PTCLDY    74  65  73 SW5       29.80S
SOUTH BOSTON*  NOT AVBL
MARTINSVILLE   PTCLDY    75  65  71 SW3       29.85S
ROANOKE        PTCLDY    71  65  81 W9        29.83R
BLACKSBURG     CLEAR     66  66 100 W3        29.90R
DUBLIN*        PTCLDY    68  64  87 SW7       29.90S
MARION*        CLOUDY    68  65  89 W14       29.94S
HILLSVILLE*    MOCLDY    67  61  80 W6        29.93R
RICHLANDS*     LGT RAIN  69  65  86 W9        29.94R
WISE*          LGT RAIN  68  59  73 W12G21    29.97R
ABINGDON*      MOCLDY    69  68  96 W8        29.93S
$$

MDZ021>025-VAZ099-100-220100-
SOUTHERN MARYLAND AND THE DELMARVA PENINSULA

CITY           SKY/WX    TMP DP  RH WIND       PRES   REMARKS
PATUXENT RIVER CLEAR     74  62  66 S6        29.68R
BAY BRIDGE APT   N/A     73  59  60 S6        29.66F
LEONARDTOWN    CLEAR     73  61  64 S5        29.70R
DOVER          CLEAR     71  67  87 S2        29.65R
GEORGETOWN     CLEAR     70  65  84 S8        29.69R
EASTON         PTCLDY    73  61  64 CALM      29.71R
CAMBRIDGE      CLEAR     72  63  73 CALM      29.68R
SALISBURY      CLEAR     73  67  81 SW7       29.69R
OCEAN CITY     CLEAR     72  69  90 CALM      29.69R FOG
WALLOPS ISLAND CLEAR     71  66  84 W6        29.71R
ACCOMACK*      CLEAR     70  64  83 SW6       29.72R
$$

NCZ012>017-030>032-220100-
EASTERN NORTH CAROLINA

CITY           SKY/WX    TMP DP  RH WIND       PRES   REMARKS
ELIZABETH CITY CLEAR     71  67  87 SW8       29.78R
AHOSKIE*       CLEAR     72  66  81 CALM      29.78S
EDENTON*       CLEAR     75  67  76 SW8       29.79R
CURRITUCK*     CLEAR     73  64  73 SW3       29.78R
KILL DEVIL HLS CLEAR     74  66  78 SW7       29.78R
MANTEO         CLEAR     74  67  79 SW8       29.80R
CAPE HATTERAS  CLEAR     72  67  84 W8        29.82R
TARBORO*       CLEAR     76  66  72 S6        29.80S
GOLDSBORO      CLEAR     77  70  77 CALM      29.81R
WASHINGTON     CLEAR     75  65  73 S3        29.81S
GREENVILLE     CLEAR     73  68  83 SW6       29.84R
NEW BERN       CLEAR     74  66  76 S6        29.85R
WILMINGTON     CLEAR     77  64  64 SW7       29.87R
$$

VAZ048-220100-
ELSEWHERE

CITY           SKY/WX    TMP DP  RH WIND       PRES   REMARKS
HARRISBURG PA  CLOUDY    71  69  93 W6        29.63S FOG
BALTIMORE      PTCLDY    73  66  78 SE3       29.65S
ANNAPOLIS        N/A     73  64  73 SE5       29.66S
ANDREWS AFB    PTCLDY    73  63  71 S8        29.67S
WILMINGTON DE  CLOUDY    73  65  75 S7        29.66S
PHILADELPHIA   MOCLDY    74  66  76 SW6       29.65R
WILDWOOD NJ*   CLEAR     68  63  83 S3        29.68R
ATLANTIC CITY  CLEAR     71  68  90 CALM      29.65R
HENDERSON NC   CLEAR     74  64  70 SW5       29.80R
GREENSBORO     MOCLDY    76  65  68 W8        29.84R
ROCKY MOUNT    CLEAR     75  66  73 S6        29.80R
FAYETTEVILLE   CLEAR     78  65  63 SW8       29.84R
CHARLOTTE      MOCLDY    76  65  68 SW5       29.88R
$$

VAZ100-220100-
MARINE

STATION/POSITION TIME  TEMP    WIND        PRES    WAVE   SWELL
                       AIR SEA DIR/SP/G            HT/PER HT/PER
                 (UTC) (F)     (DEG/KT/KT) (MB)    (FT/S) (FT/S)
44066 TX TWR #4  0000   70 71  340/ 10/ 12 1002.1R   4/ 8   3/ 8
CAPE MAY NJ      0000   71 76  200/  4/  5 1004.1R
LEWES DE         0000   71 72  200/  2/  3 1004.5R
15NM E FENWICK I 0000   72 72              1004.7R   4/ 8
OCEAN-CITY-INLET 0000   72 72  220/  5/  5 1004.8R
WACHAPREAGUE VA  0000   72 75  250/  4/  5 1006.1R
THOMAS POINT MD  0000   75 74  180/ 12/ 13 1005.3F
GOOSES REEF MD   0000   76     200/  8/ 10 1005.3S
COVE POINT MD    0000   76     200/  9/ 10 1004.7S
SOLOMONS ISLAND  0000      76                N/A
BISHOPS HEAD MD  0000   73 75  190/  9/ 10 1004.9S
PINEY POINT MD   0000          200/  8/  9   N/A
POTOMAC MD       0000   76     190/ 10/ 12 1004.7S
CAMBRIDGE MD     0000   74 74  190/  4/  5 1004.6S
LEWISETTA VA     0000   76 76  210/  8/  9 1004.9R
RAPPAHANNOCK LGT 0000          190/ 11/ 12 1006.7R
STINGRAY PT      0000   77     200/  8/ 10   N/A
YORK RVR RNG VA  0000   77     220/ 11/ 12 1006.0R
YORKTOWN VA      0000   77 76  220/  7/  9 1006.0S
JAMESTOWN VA     0000   76     230/  6/  8   N/A
DOMINION TERM VA 0000   77     220/  9/ 10 1006.9R
KIPTOPEKE VA     0000      79  240/ 11/ 12   N/A
CHES BAY BRIDGE  0000   78 75  190/  9/  9 1006.4R
CAPE HENRY VA    0000   76     200/  6/  7 1005.8S
CHESAPEAKE LGHT  2300   75     240/ 10/ 10 1007.4R
WILLOUBY STN VA  0000   78     230/ 12/ 15 1005.6R
S CRANEY ISL VA  0000          180/  6/  9 1006.6S
CAPE HENRY BUOY  0000      75                N/A     4/ 9
1ST LANDING BUOY 0000   77     210/  8/ 10 1006.6R
CAPE CHARLES BUO 0000      74                N/A     3/ 8   3/ 8
OFFSHORE WE BUOY 0000      74                N/A     5/ 8   5/ 8
64NM E OF VA BCH 0000   74 77  260/ 10/ 12 1007.1R   5/ 8   5/ 8
DUCK PIER NC     0000   76 75  230/ 10/ 13 1007.6R
44100 DUCK FRF   0000      74                N/A     5/ 8
44056 DUCK FRF   0000                        N/A     4/ 8
OREGON INLET NC  0000   76 76  220/ 11/ 13 1008.9R
DIAMOND SHLS NC  0000   78     240/ 17/ 21 1009.7R   7/ 9   7/ 9
CAPE LOOKOUT NC  2300   77     230/  8/ 11 1010.2R
$$



USA.gov is the U.S. government's official web portal to all federal, state and local government web resources and services.